Terug naar catalogus

THORAD AGENA D DEB

ActiefLEO
NORAD 4453·DEBRIS·🇺🇸 United States

Gelanceerd Sep 30, 1969 vanaf Vandenberg Space Force Base

Loading…

Volgende Passages (komende 24 uur)

TLE

VersSource: Space-Track

Epoch: Sep 14, 2026, 05:25 UTC

1 04453U 69082EY  26257.22581528 -.00000223  00000-0 -92881-4 0  9997
2 04453  70.1343 339.0428 0032715   8.8337 351.3346 14.11241095921029

Volg THORAD AGENA D DEB in realtime met AllMySat

Download on the App Store